Flag for Colombia Weather past 2 weeks in Barranquilla, Colombia

Now
86 °F

Sunny.


Feels Like: 99 °F
Forecast: 80 / 88 °F
Wind: 3 mph from North

Location: Barranquilla / Ernestocortissoz

Current Time: Aug 2, 2015 at 9:29:31 AM

Latest Report: Aug 2, 2015 at 9:00 AM


Visibility: 10 mi

Pressure: 29.81 "Hg

Humidity: 79%

Dew point: 79 °F

Location of BarranquillaLocation

Historic Weather in Barranquilla — Graph

°F

Barranquilla temperature yesterday

Maximum temperature yesterday: 97 °F (at 1:00 PM)
Minimum temperature yesterday: 79 °F (at 1:00 AM)
Average temperature yesterday: 84 °F

Past Weeks' High & Low Weather Summary

 TemperatureHumidityPressure
High97 °F (Jul 31, 12:00 PM)100% (Jul 18, 10:00 PM)29.95 "Hg (Jul 18, 10:00 PM)
Low77 °F (Jul 18, 10:00 PM)53% (Jul 25, 2:00 PM)29.71 "Hg (Jul 25, 4:00 PM)
Average84 °F81%29.83 "Hg
* Reported Jul 18 8:00 AM — Aug 2 8:00 AM, Barranquilla, Weather by CustomWeather, © 2015

Note: Actual official high and low records may vary slightly from our data, if they occured in-between our weather recording intervals... More about our weather records

Advertising

Barranquilla weather history for previous 24 hours

 ConditionsComfort  
Time TempWeatherWind HumidityBarometerVisibility
8:00 AM
Sun, Aug 2
82 °FScattered clouds.3 mph89%29.81 "HgN/A
7:00 AM81 °FFog.3 mph89%29.80 "Hg4 mi
6:00 AM81 °FScattered clouds.6 mph89%29.77 "Hg5 mi
5:00 AM81 °FClear.9 mph89%29.76 "Hg10 mi
4:00 AM81 °FClear.9 mph89%29.75 "Hg10 mi
3:00 AM81 °FPassing clouds.7 mph89%29.75 "HgN/A
2:00 AM81 °FPassing clouds.6 mph89%29.76 "HgN/A
1:55 AM81 °FPassing clouds.6 mph89%29.76 "HgN/A
1:00 AM81 °FPassing clouds.7 mph89%29.77 "HgN/A
12:00 AM81 °FPassing clouds.14 mph89%29.80 "HgN/A
11:00 PM
Sat, Aug 1
82 °FPassing clouds.14 mph84%29.81 "HgN/A
10:00 PM82 °FPassing clouds.14 mph84%29.81 "HgN/A
9:00 PM82 °FPassing clouds.14 mph84%29.81 "HgN/A
8:00 PM82 °FPassing clouds.7 mph84%29.79 "HgN/A
7:00 PM84 °FPassing clouds.10 mph79%29.77 "HgN/A
6:00 PM86 °FScattered clouds.9 mph79%29.76 "HgN/A
5:00 PM86 °FScattered clouds.14 mph75%29.76 "HgN/A
4:00 PM88 °FScattered clouds.8 mph70%29.77 "HgN/A
3:00 PM90 °FScattered clouds.14 mph67%29.78 "HgN/A
2:00 PM90 °FScattered clouds.12 mph71%29.79 "HgN/A
1:00 PM97 °FPassing clouds.5 mph53%29.80 "HgN/A
12:00 PM95 °FPassing clouds.7 mph56%29.83 "HgN/A
11:00 AM91 °FPassing clouds.7 mph67%29.84 "HgN/A
10:00 AM86 °FPassing clouds.10 mph75%29.86 "HgN/A
9:00 AM84 °FScattered clouds.8 mph84%29.86 "HgN/A
Weather by CustomWeather, © 2015

See weather overviewHow to use our weather pages